Weather History for Monterey, CA

Change the Weather History Date:

Sunday, May 6, 2012

  Actual Average Record
Temperature  
Mean Temperature 57 °F 56 °F  
Max Temperature 70 °F 63 °F 76 °F (2007)
Min Temperature 44 °F 49 °F 42 °F (2010)
Degree Days  
Heating Degree Days 8    
Month to date heating degree days 59  
Since 1 July heating degree days 2863  
Cooling Degree Days 0    
Month to date cooling degree days 0  
Year to date cooling degree days 0  
Growing Degree Days 7 (Base 50)    
Moisture  
Dew Point 43 °F    
Average Humidity 62    
Maximum Humidity 86    
Minimum Humidity 37    
Precipitation  
Precipitation 0.00 in - 0.06 in (2003)
Month to date precipitation 0.08  
Year to date precipitation 7.28  
Since 1 July precipitation 11.08  
Sea Level Pressure  
Sea Level Pressure 30.08 in    
Wind  
Wind Speed 3 mph (NW)    
Max Wind Speed 13 mph    
Max Gust Speed 16 mph    
Visibility 9 miles    
Events      
T = Trace of Precipitation, MM = Missing Value Source: NWS Daily Summary

Daily Weather History Graph

Daily Weather History Graph

Search for Another Location

Airport:

Trip Planner

Search our weather history database for the weather conditions in past years. The results will help you decide how hot, cold, wet, or windy it might be!

Date:

Astronomy

May. 06, 2012 Rise Set
Actual Time 6:07 AM PDT 8:00 PM PDT
Civil Twilight 5:39 AM PDT 8:28 PM PDT
Nautical Twilight 5:05 AM PDT 9:02 PM PDT
Astronomical Twilight 4:29 AM PDT 9:39 PM PDT
Moon 9:09 PM PDT (5/6) 6:24 AM PDT (5/6)
Length of Visible Light 14h 48m
Length of Day
13h 52m
Full, 99% of the Moon is Illuminated
May 6
Full
May 12
Last Quarter
May 20
New
May 28
First Quarter
Jun 4
Full

Hourly Weather History & Observations

Time (PDT) Temp. Windchill Dew Point Humidity Pressure Visibility Wind Dir Wind Speed Gust Speed Precip Events Conditions
12:54 AM 50.0 °F - 42.1 °F 74% 30.12 in 9.0 mi Calm Calm - N/A   Clear
1:54 AM 46.9 °F - 42.1 °F 83% 30.09 in 7.0 mi ENE 3.5 mph - N/A   Clear
2:54 AM 46.0 °F - 41.0 °F 83% 30.09 in 8.0 mi Calm Calm - N/A   Clear
3:54 AM 46.9 °F - 42.1 °F 83% 30.07 in 7.0 mi East 6.9 mph - N/A   Clear
4:54 AM 46.9 °F - 42.1 °F 83% 30.07 in 8.0 mi ESE 4.6 mph - N/A   Clear
5:54 AM 45.0 °F 43.5 °F 39.9 °F 82% 30.07 in 9.0 mi SE 3.5 mph - N/A   Clear
6:54 AM 48.0 °F - 42.1 °F 80% 30.09 in 10.0 mi Calm Calm - N/A   Clear
7:54 AM 54.0 °F - 45.0 °F 72% 30.09 in 9.0 mi East 3.5 mph - N/A   Clear
8:54 AM 61.0 °F - 46.0 °F 58% 30.09 in 7.0 mi Calm Calm - N/A   Clear
9:54 AM 64.0 °F - 48.0 °F 56% 30.09 in 10.0 mi WNW 3.5 mph - N/A   Clear
10:54 AM 64.0 °F - 46.9 °F 54% 30.09 in 9.0 mi West 6.9 mph - N/A   Clear
11:54 AM 62.1 °F - 45.0 °F 53% 30.10 in 10.0 mi WNW 5.8 mph - N/A   Clear
12:54 PM 69.1 °F - 44.1 °F 40% 30.09 in 10.0 mi NW 6.9 mph - N/A   Clear
1:54 PM 68.0 °F - 43.0 °F 40% 30.09 in 10.0 mi NW 8.1 mph - N/A   Clear
2:54 PM 66.9 °F - 44.1 °F 44% 30.09 in 10.0 mi WNW 5.8 mph - N/A   Clear
3:54 PM 66.0 °F - 44.1 °F 45% 30.08 in 10.0 mi Variable 4.6 mph - N/A   Clear
4:54 PM 66.9 °F - 41.0 °F 39% 30.07 in 10.0 mi WNW 6.9 mph - N/A   Clear
5:54 PM 66.9 °F - 39.9 °F 37% 30.06 in 10.0 mi NW 4.6 mph - N/A   Clear
6:54 PM 64.9 °F - 39.9 °F 40% 30.06 in 10.0 mi Variable 3.5 mph - N/A   Clear
7:54 PM 60.1 °F - 44.1 °F 55% 30.06 in 8.0 mi Calm Calm - N/A   Clear
8:54 PM 57.0 °F - 45.0 °F 64% 30.06 in 9.0 mi Calm Calm - N/A   Clear
9:54 PM 55.0 °F - 44.1 °F 67% 30.07 in 9.0 mi Calm Calm - N/A   Clear
10:54 PM 54.0 °F - 43.0 °F 66% 30.06 in 10.0 mi Calm Calm - N/A   Clear
11:54 PM 53.1 °F - 46.9 °F 80% 30.07 in 7.0 mi Calm Calm - N/A   Clear